Location: Moy Burn
(57.3833°N, 4.0667°W)
Time: 09:43:04
(UTC+00:00)

Cosmos 1378 Rocket - Pass Details

Date: 08 August 2020
Orbit: 601 x 628 km, 82.5° (Epoch: 18 September)

Event Time Altitude Azimuth Distance (km) Brightness Sun altitude
Rises 23:19:52 0° 347° (NNW) 2,934 8.9 -15.7°
Reaches altitude 10° 23:22:07 10° 349° (N) 2,021 7.6 -15.8°
Maximum altitude 23:26:37 77° 76° (ENE) 653 3.6 -15.9°
Enters shadow 23:28:50 29° 158° (SSE) 1,152 4.4 -16.0°
